User: anonymous   Login
Location: Oshawa
(43.9000°N, 78.8670°W)
Time: 17:47:32
(UTC-04:00)
Language:

Iridium 46 - Orbit

View from above orbital plane
View from above orbital plane
View from above satellite
View from above satellite

Ground track
Ground track

The orbit data is extracted from the following two-line orbital elements,

1 24905U 97043C   16208.54400019 -.00000028  00000-0 -16935-4 0  9993
2 24905  86.3944  32.1011 0002096  82.3427 277.8007 14.34216915991159
Epoch (UTC): 26 July 2016 13:03:21
Eccentricity: 0.0002096
inclination: 86.3944°
perigee height: 776 km
apogee height: 779 km
right ascension of ascending node: 32.1011°
argument of perigee: 82.3427°
revolutions per day: 14.34216915
mean anomaly at epoch: 277.8007°
orbit number at epoch: 99115

The dashed part of the orbit path shows where the satellite is in the earth's shadow,  

DLR